Location: Brachbach
(49.1847°N, 9.7240°E)
Time: 20:21:54
(UTC+00:00)

Cosmos 2219 Rocket - Pass Details

Date: 21 August 2024
Orbit: 826 x 846 km, 71.0° (Epoch: 09 September)

Event Time Altitude Azimuth Distance (km) Brightness Sun altitude
Exits shadow 22:35:04 74° 65° (ENE) 884 2.2 -28.2°
Drops below altitude 10° 22:40:20 10° 30° (NNE) 2,480 5.2 -28.4°
Sets 22:42:48 0° 30° (NNE) 3,419 6.0 -28.4°
